East Flat Rock, NC (28726)

15:12 EDT je la 23an de oktobro 2014 (GMT -0400)
Ridgeview | Change Station
CLOSE
Current Station
Personaj Veter-Stacioj
Location: Flat Rock, NC
Alteco: 2425 ft
Najbaraj veter-stacioj
Aktiva averto: Frost Advisory

Elev 2425 ft 35.26 °N, 82.45 °W | Updated 1 second ago

Sennuba
Sennuba
66.5 °F
Sentas kiel 66.5 °F
N
0.0
Vento Varianta Vento from Sudo
Gusts 4.0 mej/h

hodiaŭ
High -- | Low -- °F
--% Ebla precip.
hieraŭ
High -- | Low -- °F
Precip. -- co
7:42 AM 6:44 PM
Malkreskanta Lunarko, 0% visible
Aerpremo 30.01 co
Vidodistanco 10.0 mejloj
Nuboj Sennuba
Rosopunkto 40 °F
Humido 37%
Pluvokvanto 0.00 co
Neĝprofundo Not available.
UV 5 out of 12
Pollen 2.50 out of 12
Ozone Good
PM2.5 Good
Flu Activity Sporadic
METAR KAVL 231854Z 34017G23KT 10SM CLR 18/01 A3004 RMK AO2 SLP162 T01780011

More Conditions Fewer Conditions

Aerpremo 30.01 co
Vidodistanco 10.0 mejloj
Nuboj Sennuba
Rosopunkto 40 °F
Humido 37%
Pluvokvanto 0.00 co
Neĝprofundo Not available.
UV 5 out of 12
Pollen 2.50 out of 12
Ozone Good
PM2.5 Good
Flu Activity Sporadic
METAR KAVL 231854Z 34017G23KT 10SM CLR 18/01 A3004 RMK AO2 SLP162 T01780011

More Conditions Fewer Conditions

10-Day Weather Forecast

Almanac

Astronomio

Oct. 23, 2014 Leviĝo Subiro
Aktuala tempo 07:42 EDT 18:44 EDT
Civila krepusko 07:16 EDT 19:10 EDT
Naŭtika krepusko 06:47 EDT 19:40 EDT
Astronomia krepusko 06:17 EDT 20:09 EDT
Luno 07:22 EDT 18:45 EDT
Daŭro de videbla lumo 11h 53m
Daŭro de tago
11h 01m
Tomorrow will be 2m 4s shorter.
Malkreskanta Lunarko, 0% of the Moon is Illuminated
hodiaŭ
Malkreskanta Lunarko
Oct 23
Nova
Oct 30
Unua kvaronluno
Nov 6
Plenlumo
Nov 14
Lasta kvaronluno

Hodiaŭaj ekstremaĵoj

State Highs State Lows

Community

WunderPhotos

Upload Photos

1,764,346 photos uploaded!

WunderBlogs® & News

By Dr. Jeff Masters
Director of Meteorology, Weather Underground
By Kari Strenfel
Meteorologist, Weather Underground
By Christopher C. Burt
Weather Historian, Weather Underground
October 23, 2014
October 23, 2014
October 23, 2014

Nearby

Aerkvalito

  Aerkvalito Aerkvalita indico Poluanto
hieraŭ Good
PM2.5
hieraŭ Good
OZONE
nuna Good
PM2.5
nuna Good
OZONE
ĵaŭdo Good
PM2.5
ĵaŭdo Good
OZONE
vendredo Good
PM2.5
vendredo Good
OZONE
sabato Good
PM2.5
sabato Good
OZONE
dimanĉo Good
PM2.5
dimanĉo Good
OZONE

Neĝa profundeco

Station Depth Alteco
No new snow has been reported.

Earthquake Activity

Urbo Distance Mag. Time & Date
No recent earthquake activity has been reported nearby.
Minimum magnitude displayed is 2.5.

Coastal Water Temperatures

Loko Temperaturo
No Stations Reporting

Najbaraj veter-stacioj